����������;��������(kWh)
2017-10-16 00:00;81,45
2017-10-16 00:15;82,45
2017-10-16 00:30;84,4
2017-10-16 00:45;82
2017-10-16 01:00;82,5
2017-10-16 01:15;81,45
2017-10-16 01:30;83
2017-10-16 01:45;82,9
2017-10-16 02:00;82,25
2017-10-16 02:15;83,85
2017-10-16 02:30;82
2017-10-16 02:45;83,95
2017-10-16 03:00;82,25
2017-10-16 03:15;82,85
2017-10-16 03:30;81,75
2017-10-16 03:45;81,6
2017-10-16 04:00;84,05
2017-10-16 04:15;79
2017-10-16 04:30;79,15
2017-10-16 04:45;78,5
2017-10-16 05:00;77,15
2017-10-16 05:15;82,3
2017-10-16 05:30;79,25
2017-10-16 05:45;82,2
2017-10-16 06:00;82,95
2017-10-16 06:15;83,8
2017-10-16 06:30;88,7
2017-10-16 06:45;87,45
2017-10-16 07:00;89,2
2017-10-16 07:15;87,05
2017-10-16 07:30;91
2017-10-16 07:45;89,15
2017-10-16 08:00;93,2
2017-10-16 08:15;94,1
2017-10-16 08:30;106,1
2017-10-16 08:45;119,8
2017-10-16 09:00;124,55
2017-10-16 09:15;130,55
2017-10-16 09:30;129,3
2017-10-16 09:45;130,25
2017-10-16 10:00;136,05
2017-10-16 10:15;141,25
2017-10-16 10:30;141,5
2017-10-16 10:45;140,4
2017-10-16 11:00;148,2
2017-10-16 11:15;149
2017-10-16 11:30;145,3
2017-10-16 11:45;149,45
2017-10-16 12:00;153,45
2017-10-16 12:15;154,5
2017-10-16 12:30;159,05
2017-10-16 12:45;154,9
2017-10-16 13:00;158,2
2017-10-16 13:15;162,6
2017-10-16 13:30;161,05
2017-10-16 13:45;166,45
2017-10-16 14:00;163,7
2017-10-16 14:15;166,55
2017-10-16 14:30;166,2
2017-10-16 14:45;168,4
2017-10-16 15:00;163,7
2017-10-16 15:15;161
2017-10-16 15:30;160,2
2017-10-16 15:45;150,25
2017-10-16 16:00;153,6
2017-10-16 16:15;148,85
2017-10-16 16:30;148,4
2017-10-16 16:45;146,55
2017-10-16 17:00;135,25
2017-10-16 17:15;135,7
2017-10-16 17:30;129,1
2017-10-16 17:45;127,3
2017-10-16 18:00;125,1
2017-10-16 18:15;123
2017-10-16 18:30;121
2017-10-16 18:45;116,6
2017-10-16 19:00;125,7
2017-10-16 19:15;120,1
2017-10-16 19:30;122,1
2017-10-16 19:45;115,65
2017-10-16 20:00;114,25
2017-10-16 20:15;112,65
2017-10-16 20:30;106,9
2017-10-16 20:45;107,85
2017-10-16 21:00;105,55
2017-10-16 21:15;107,8
2017-10-16 21:30;104,6
2017-10-16 21:45;105,7
2017-10-16 22:00;94,7
2017-10-16 22:15;94,25
2017-10-16 22:30;93,4
2017-10-16 22:45;91,15
2017-10-16 23:00;95,1
2017-10-16 23:15;87,55
2017-10-16 23:30;88,65
2017-10-16 23:45;87,4
2017-10-17 00:00;83,85
2017-10-17 00:15;88,9
2017-10-17 00:30;86,95
2017-10-17 00:45;88,8
2017-10-17 01:00;87,85
2017-10-17 01:15;87,7
2017-10-17 01:30;91,05
2017-10-17 01:45;86,85
2017-10-17 02:00;88,35
2017-10-17 02:15;86,65
2017-10-17 02:30;85,5
2017-10-17 02:45;86
2017-10-17 03:00;84,95
2017-10-17 03:15;85,45
2017-10-17 03:30;85,75
2017-10-17 03:45;84,75
2017-10-17 04:00;86,4
2017-10-17 04:15;84,15
2017-10-17 04:30;86
2017-10-17 04:45;85,5
2017-10-17 05:00;84,55
2017-10-17 05:15;87,2
2017-10-17 05:30;87,5
2017-10-17 05:45;90
2017-10-17 06:00;91,6
2017-10-17 06:15;90
2017-10-17 06:30;93,05
2017-10-17 06:45;88,75
2017-10-17 07:00;92,15
2017-10-17 07:15;89,6
2017-10-17 07:30;93,95
2017-10-17 07:45;96,6
2017-10-17 08:00;97,15
2017-10-17 08:15;99,45
2017-10-17 08:30;102,55
2017-10-17 08:45;113,35
2017-10-17 09:00;114,2
2017-10-17 09:15;126,15
2017-10-17 09:30;135,35
2017-10-17 09:45;139,35
2017-10-17 10:00;140,55
2017-10-17 10:15;144,8
2017-10-17 10:30;150,9
2017-10-17 10:45;154,5
2017-10-17 11:00;154,05
2017-10-17 11:15;156,1
2017-10-17 11:30;157,65
2017-10-17 11:45;156,55
2017-10-17 12:00;159,05
2017-10-17 12:15;164,8
2017-10-17 12:30;163,75
2017-10-17 12:45;166,85
2017-10-17 13:00;160,8
2017-10-17 13:15;163,2
2017-10-17 13:30;165,85
2017-10-17 13:45;167,15
2017-10-17 14:00;169,85
2017-10-17 14:15;165,25
2017-10-17 14:30;169,6
2017-10-17 14:45;163,4
2017-10-17 15:00;162,8
2017-10-17 15:15;157
2017-10-17 15:30;158,75
2017-10-17 15:45;151,65
2017-10-17 16:00;148,45
2017-10-17 16:15;149,25
2017-10-17 16:30;146,45
2017-10-17 16:45;144,35
2017-10-17 17:00;142,9
2017-10-17 17:15;140,9
2017-10-17 17:30;143,35
2017-10-17 17:45;136,55
2017-10-17 18:00;133,5
2017-10-17 18:15;133,75
2017-10-17 18:30;135,5
2017-10-17 18:45;129,65
2017-10-17 19:00;135,1
2017-10-17 19:15;131,8
2017-10-17 19:30;126,5
2017-10-17 19:45;125,25
2017-10-17 20:00;126,1
2017-10-17 20:15;116,6
2017-10-17 20:30;115
2017-10-17 20:45;111,5
2017-10-17 21:00;108,05
2017-10-17 21:15;105,4
2017-10-17 21:30;103,55
2017-10-17 21:45;104,05
2017-10-17 22:00;98,8
2017-10-17 22:15;103,3
2017-10-17 22:30;103
2017-10-17 22:45;92,55
2017-10-17 23:00;93,5
2017-10-17 23:15;83,55
2017-10-17 23:30;83,95
2017-10-17 23:45;81,55
2017-10-18 00:00;82,4
2017-10-18 00:15;85,6
2017-10-18 00:30;82,75
2017-10-18 00:45;85,65
2017-10-18 01:00;83,3
2017-10-18 01:15;85,15
2017-10-18 01:30;82,35
2017-10-18 01:45;84,6
2017-10-18 02:00;84,35
2017-10-18 02:15;84,45
2017-10-18 02:30;85
2017-10-18 02:45;82,9
2017-10-18 03:00;84,4
2017-10-18 03:15;82,05
2017-10-18 03:30;83,45
2017-10-18 03:45;82,5
2017-10-18 04:00;82,95
2017-10-18 04:15;83,55
2017-10-18 04:30;82,65
2017-10-18 04:45;82,4
2017-10-18 05:00;81,15
2017-10-18 05:15;84,35
2017-10-18 05:30;84,15
2017-10-18 05:45;85,35
2017-10-18 06:00;87,25
2017-10-18 06:15;91,55
2017-10-18 06:30;100,2
2017-10-18 06:45;98,75
2017-10-18 07:00;101,3
2017-10-18 07:15;97,1
2017-10-18 07:30;97,3
2017-10-18 07:45;100
2017-10-18 08:00;97,4
2017-10-18 08:15;105,65
2017-10-18 08:30;108
2017-10-18 08:45;118,85
2017-10-18 09:00;125,5
2017-10-18 09:15;132,25
2017-10-18 09:30;136,75
2017-10-18 09:45;134,2
2017-10-18 10:00;142,3
2017-10-18 10:15;140
2017-10-18 10:30;150,1
2017-10-18 10:45;155
2017-10-18 11:00;159,9
2017-10-18 11:15;165,8
2017-10-18 11:30;158,3
2017-10-18 11:45;164
2017-10-18 12:00;163,8
2017-10-18 12:15;171,1
2017-10-18 12:30;171,25
2017-10-18 12:45;164,95
2017-10-18 13:00;165,05
2017-10-18 13:15;164,5
2017-10-18 13:30;168,75
2017-10-18 13:45;165,3
2017-10-18 14:00;162,4
2017-10-18 14:15;162,85
2017-10-18 14:30;161,65
2017-10-18 14:45;162,5
2017-10-18 15:00;152,3
2017-10-18 15:15;152,3
2017-10-18 15:30;149,3
2017-10-18 15:45;146,35
2017-10-18 16:00;144,5
2017-10-18 16:15;135,8
2017-10-18 16:30;137,25
2017-10-18 16:45;131,65
2017-10-18 17:00;129,9
2017-10-18 17:15;125,7
2017-10-18 17:30;125,65
2017-10-18 17:45;128,4
2017-10-18 18:00;127,9
2017-10-18 18:15;126
2017-10-18 18:30;121,35
2017-10-18 18:45;118,8
2017-10-18 19:00;128,3
2017-10-18 19:15;127,5
2017-10-18 19:30;126,25
2017-10-18 19:45;119,6
2017-10-18 20:00;113,6
2017-10-18 20:15;112,55
2017-10-18 20:30;110,25
2017-10-18 20:45;107,65
2017-10-18 21:00;103,3
2017-10-18 21:15;100,95
2017-10-18 21:30;98,25
2017-10-18 21:45;96,35
2017-10-18 22:00;93,8
2017-10-18 22:15;91,9
2017-10-18 22:30;92,5
2017-10-18 22:45;87,6
2017-10-18 23:00;91,7
2017-10-18 23:15;84,35
2017-10-18 23:30;85,15
2017-10-18 23:45;83,6
2017-10-19 00:00;82,4
2017-10-19 00:15;82,1
2017-10-19 00:30;80,8
2017-10-19 00:45;83,9
2017-10-19 01:00;81,3
2017-10-19 01:15;83,8
2017-10-19 01:30;83,75
2017-10-19 01:45;85,1
2017-10-19 02:00;84,45
2017-10-19 02:15;84,05
2017-10-19 02:30;84,55
2017-10-19 02:45;83,5
2017-10-19 03:00;86,25
2017-10-19 03:15;83,25
2017-10-19 03:30;84,85
2017-10-19 03:45;83,35
2017-10-19 04:00;84,1
2017-10-19 04:15;85,2
2017-10-19 04:30;83,4
2017-10-19 04:45;85,75
2017-10-19 05:00;83,7
2017-10-19 05:15;85,75
2017-10-19 05:30;82,6
2017-10-19 05:45;89,4
2017-10-19 06:00;89,9
2017-10-19 06:15;84,05
2017-10-19 06:30;90,15
2017-10-19 06:45;92,95
2017-10-19 07:00;98,2
2017-10-19 07:15;95,6
2017-10-19 07:30;97,75
2017-10-19 07:45;100,65
2017-10-19 08:00;100,1
2017-10-19 08:15;101,95
2017-10-19 08:30;106,5
2017-10-19 08:45;120,35
2017-10-19 09:00;120,75
2017-10-19 09:15;126,8
2017-10-19 09:30;127,3
2017-10-19 09:45;131,1
2017-10-19 10:00;133,85
2017-10-19 10:15;131,05
2017-10-19 10:30;135,3
2017-10-19 10:45;141,1
2017-10-19 11:00;149,85
2017-10-19 11:15;150,2
2017-10-19 11:30;151,8
2017-10-19 11:45;154,25
2017-10-19 12:00;154,75
2017-10-19 12:15;159,85
2017-10-19 12:30;162,55
2017-10-19 12:45;163,95
2017-10-19 13:00;158,35
2017-10-19 13:15;156,95
2017-10-19 13:30;162,8
2017-10-19 13:45;161,95
2017-10-19 14:00;167,85
2017-10-19 14:15;163,6
2017-10-19 14:30;168,5
2017-10-19 14:45;160,9
2017-10-19 15:00;159,15
2017-10-19 15:15;156,15
2017-10-19 15:30;147,95
2017-10-19 15:45;153,55
2017-10-19 16:00;145,85
2017-10-19 16:15;149,85
2017-10-19 16:30;142,35
2017-10-19 16:45;140,35
2017-10-19 17:00;137,8
2017-10-19 17:15;134,9
2017-10-19 17:30;137,85
2017-10-19 17:45;131,85
2017-10-19 18:00;127,55
2017-10-19 18:15;123,5
2017-10-19 18:30;118,8
2017-10-19 18:45;120,15
2017-10-19 19:00;124,3
2017-10-19 19:15;123,1
2017-10-19 19:30;115,15
2017-10-19 19:45;113,4
2017-10-19 20:00;114,4
2017-10-19 20:15;109,85
2017-10-19 20:30;109,3
2017-10-19 20:45;106,85
2017-10-19 21:00;107,35
2017-10-19 21:15;104,65
2017-10-19 21:30;96,7
2017-10-19 21:45;96,95
2017-10-19 22:00;91,8
2017-10-19 22:15;93
2017-10-19 22:30;89,6
2017-10-19 22:45;87,05
2017-10-19 23:00;91,05
2017-10-19 23:15;82,1
2017-10-19 23:30;81,9
2017-10-19 23:45;80,4
2017-10-20 00:00;81,85
2017-10-20 00:15;83,4
2017-10-20 00:30;81,6
2017-10-20 00:45;82,45
2017-10-20 01:00;80,2
2017-10-20 01:15;83,55
2017-10-20 01:30;81,45
2017-10-20 01:45;82,6
2017-10-20 02:00;80,5
2017-10-20 02:15;82
2017-10-20 02:30;82,3
2017-10-20 02:45;81,05
2017-10-20 03:00;80,75
2017-10-20 03:15;82,7
2017-10-20 03:30;80,3
2017-10-20 03:45;83
2017-10-20 04:00;81,8
2017-10-20 04:15;81,45
2017-10-20 04:30;80,95
2017-10-20 04:45;80,6
2017-10-20 05:00;82,1
2017-10-20 05:15;82,75
2017-10-20 05:30;85,7
2017-10-20 05:45;83,75
2017-10-20 06:00;87,95
2017-10-20 06:15;84,4
2017-10-20 06:30;91,2
2017-10-20 06:45;91,65
2017-10-20 07:00;88,95
2017-10-20 07:15;90,65
2017-10-20 07:30;88,35
2017-10-20 07:45;93,9
2017-10-20 08:00;94,9
2017-10-20 08:15;98,05
2017-10-20 08:30;102,65
2017-10-20 08:45;110,25
2017-10-20 09:00;113,7
2017-10-20 09:15;120
2017-10-20 09:30;123,4
2017-10-20 09:45;126,7
2017-10-20 10:00;132,4
2017-10-20 10:15;137,75
2017-10-20 10:30;138,9
2017-10-20 10:45;146,55
2017-10-20 11:00;149,4
2017-10-20 11:15;153,7
2017-10-20 11:30;155,1
2017-10-20 11:45;152,25
2017-10-20 12:00;153,45
2017-10-20 12:15;154,6
2017-10-20 12:30;160,95
2017-10-20 12:45;160
2017-10-20 13:00;157,95
2017-10-20 13:15;163,65
2017-10-20 13:30;159,45
2017-10-20 13:45;156,9
2017-10-20 14:00;152,25
2017-10-20 14:15;157,05
2017-10-20 14:30;160
2017-10-20 14:45;146,7
2017-10-20 15:00;144,45
2017-10-20 15:15;139,2
2017-10-20 15:30;138,35
2017-10-20 15:45;139,65
2017-10-20 16:00;130,75
2017-10-20 16:15;128,85
2017-10-20 16:30;123,8
2017-10-20 16:45;122,35
2017-10-20 17:00;117,45
2017-10-20 17:15;110,65
2017-10-20 17:30;115
2017-10-20 17:45;110,85
2017-10-20 18:00;109,35
2017-10-20 18:15;106,1
2017-10-20 18:30;106,35
2017-10-20 18:45;104,6
2017-10-20 19:00;106,2
2017-10-20 19:15;110,7
2017-10-20 19:30;106,1
2017-10-20 19:45;104,65
2017-10-20 20:00;100,6
2017-10-20 20:15;99,4
2017-10-20 20:30;100,3
2017-10-20 20:45;96,15
2017-10-20 21:00;95,8
2017-10-20 21:15;90,7
2017-10-20 21:30;93,55
2017-10-20 21:45;90,45
2017-10-20 22:00;85,45
2017-10-20 22:15;89,7
2017-10-20 22:30;85,2
2017-10-20 22:45;86,1
2017-10-20 23:00;87,4
2017-10-20 23:15;84
2017-10-20 23:30;82,65
2017-10-20 23:45;82,45
2017-10-21 00:00;82,1
2017-10-21 00:15;85,95
2017-10-21 00:30;82,7
2017-10-21 00:45;82,6
2017-10-21 01:00;84,15
2017-10-21 01:15;83,05
2017-10-21 01:30;84,4
2017-10-21 01:45;82,85
2017-10-21 02:00;81,85
2017-10-21 02:15;84
2017-10-21 02:30;82
2017-10-21 02:45;84,25
2017-10-21 03:00;83,4
2017-10-21 03:15;82,4
2017-10-21 03:30;84,9
2017-10-21 03:45;83
2017-10-21 04:00;83,25
2017-10-21 04:15;82,65
2017-10-21 04:30;79,9
2017-10-21 04:45;79,7
2017-10-21 05:00;81,55
2017-10-21 05:15;79,6
2017-10-21 05:30;79,8
2017-10-21 05:45;78,25
2017-10-21 06:00;82,15
2017-10-21 06:15;82,75
2017-10-21 06:30;82,8
2017-10-21 06:45;82,15
2017-10-21 07:00;82,55
2017-10-21 07:15;81,1
2017-10-21 07:30;77,9
2017-10-21 07:45;73,9
2017-10-21 08:00;71,4
2017-10-21 08:15;73,15
2017-10-21 08:30;72,8
2017-10-21 08:45;74,9
2017-10-21 09:00;74,95
2017-10-21 09:15;73,95
2017-10-21 09:30;77,75
2017-10-21 09:45;74,85
2017-10-21 10:00;74,9
2017-10-21 10:15;74,15
2017-10-21 10:30;75,75
2017-10-21 10:45;75,9
2017-10-21 11:00;77,35
2017-10-21 11:15;77,4
2017-10-21 11:30;79,05
2017-10-21 11:45;79,05
2017-10-21 12:00;74,8
2017-10-21 12:15;79,9
2017-10-21 12:30;79,3
2017-10-21 12:45;75,9
2017-10-21 13:00;73,2
2017-10-21 13:15;80,35
2017-10-21 13:30;76,6
2017-10-21 13:45;78,05
2017-10-21 14:00;80,65
2017-10-21 14:15;76,4
2017-10-21 14:30;81,05
2017-10-21 14:45;80,45
2017-10-21 15:00;78,1
2017-10-21 15:15;81,75
2017-10-21 15:30;77,3
2017-10-21 15:45;82,8
2017-10-21 16:00;77,2
2017-10-21 16:15;79,6
2017-10-21 16:30;76,4
2017-10-21 16:45;78,9
2017-10-21 17:00;79,25
2017-10-21 17:15;82,35
2017-10-21 17:30;77,3
2017-10-21 17:45;76,6
2017-10-21 18:00;77,8
2017-10-21 18:15;75,6
2017-10-21 18:30;75,5
2017-10-21 18:45;83,3
2017-10-21 19:00;90
2017-10-21 19:15;92,35
2017-10-21 19:30;94,25
2017-10-21 19:45;94,6
2017-10-21 20:00;91,7
2017-10-21 20:15;96,2
2017-10-21 20:30;94,5
2017-10-21 20:45;90,7
2017-10-21 21:00;93,15
2017-10-21 21:15;91,5
2017-10-21 21:30;89,55
2017-10-21 21:45;88,85
2017-10-21 22:00;85,15
2017-10-21 22:15;88,25
2017-10-21 22:30;88,85
2017-10-21 22:45;85,9
2017-10-21 23:00;88,55
2017-10-21 23:15;81,55
2017-10-21 23:30;81,3
2017-10-21 23:45;81,75
2017-10-22 00:00;76,8
2017-10-22 00:15;81,4
2017-10-22 00:30;79,15
2017-10-22 00:45;77,3
2017-10-22 01:00;79,35
2017-10-22 01:15;77,1
2017-10-22 01:30;77,95
2017-10-22 01:45;75,95
2017-10-22 02:00;75,9
2017-10-22 02:15;79,25
2017-10-22 02:30;76,45
2017-10-22 02:45;78,2
2017-10-22 03:00;77,8
2017-10-22 03:15;76,95
2017-10-22 03:30;78,5
2017-10-22 03:45;76,85
2017-10-22 04:00;78,65
2017-10-22 04:15;76,45
2017-10-22 04:30;76,75
2017-10-22 04:45;78,7
2017-10-22 05:00;76,2
2017-10-22 05:15;78,6
2017-10-22 05:30;77,5
2017-10-22 05:45;76,5
2017-10-22 06:00;77,9
2017-10-22 06:15;76,9
2017-10-22 06:30;82,75
2017-10-22 06:45;82,85
2017-10-22 07:00;80,8
2017-10-22 07:15;85,55
2017-10-22 07:30;80,15
2017-10-22 07:45;74,55
2017-10-22 08:00;73,15
2017-10-22 08:15;72,85
2017-10-22 08:30;69,2
2017-10-22 08:45;71,55
2017-10-22 09:00;70,65
2017-10-22 09:15;73,05
2017-10-22 09:30;71,5
2017-10-22 09:45;71,7
2017-10-22 10:00;75
2017-10-22 10:15;71,6
2017-10-22 10:30;71,75
2017-10-22 10:45;73,65
2017-10-22 11:00;76,4
2017-10-22 11:15;77
2017-10-22 11:30;74,25
2017-10-22 11:45;77,1
2017-10-22 12:00;78
2017-10-22 12:15;77,05
2017-10-22 12:30;78,6
2017-10-22 12:45;76
2017-10-22 13:00;77,2
2017-10-22 13:15;76,1
2017-10-22 13:30;77,05
2017-10-22 13:45;79,75
2017-10-22 14:00;78,2
2017-10-22 14:15;76,9
2017-10-22 14:30;75,6
2017-10-22 14:45;78,05
2017-10-22 15:00;78,35
2017-10-22 15:15;80,5
2017-10-22 15:30;77,6
2017-10-22 15:45;78,3
2017-10-22 16:00;81,6
2017-10-22 16:15;83,65
2017-10-22 16:30;80,8
2017-10-22 16:45;80,5
2017-10-22 17:00;83,85
2017-10-22 17:15;80,75
2017-10-22 17:30;79,25
2017-10-22 17:45;83,5
2017-10-22 18:00;81,6
2017-10-22 18:15;83,8
2017-10-22 18:30;83
2017-10-22 18:45;84,4
2017-10-22 19:00;91,85
2017-10-22 19:15;95,15
2017-10-22 19:30;93,3
2017-10-22 19:45;91,15
2017-10-22 20:00;89,25
2017-10-22 20:15;91,15
2017-10-22 20:30;89,05
2017-10-22 20:45;86,55
2017-10-22 21:00;86,95
2017-10-22 21:15;84,6
2017-10-22 21:30;88
2017-10-22 21:45;84,95
2017-10-22 22:00;82,6
2017-10-22 22:15;84,05
2017-10-22 22:30;83,4
2017-10-22 22:45;84,7
2017-10-22 23:00;83,3
2017-10-22 23:15;79,85
2017-10-22 23:30;78,05
2017-10-22 23:45;78,2

